Content
SEND FEEDBACK

Daily
Averages
Monthly
Summary
Canada

MONCTON, NEW BRUNSWICK


Home > North America > Canada > New Brunswick
Elevation: 232 feet     Latitude: 46 07N     Longitude: 064 41W

WEATHER
 
SELECT A DAY
Number of Records: 202,866;   Date Range: 1/1/95 - 7/20/14
 
SHARE

PRINT THIS DATA

[ ← Previous Day ]
WEATHER ALMANAC - SEPTEMBER 25, 2013
[ Next Day → ]
[ °C ]   °F
Weather ElementAverageHighLow
Temperature50.9 °F55.4 °F (1:46 pm)47 °F (3:00 am)
Dewpoint49.1 °F51.8 °F (12:31 pm)44.6 °F (1:00 am)
Humidity93.5 %100 % (7:22 am)87 % (1:00 am)
Barometer29.75 in29.81 in (9:00 pm)29.72 in (3:00 am)
Wind Speed10.5 mph16.1 mph (3:00 pm)
Wind Gust26.5 mph (5:00 pm)
Weather ElementAverage
Visibility9.9 mi
Wind DirectionNW (316.4 °)

Weather ElementTotal
Precipitation---
Heating Degree Days13.8 (Base 65)
Growing Degree Days1.2 (Base 50)
Averaged from 36 records on September 25, 2013
WEATHER CONDITIONS BREAKOUT
WIND DIRECTION BREAKOUT
WEATHER BY HOUR - SEPTEMBER 25, 2013
[ °C ]   °F
Local TimeTemperatureDewpointHumidityBarometerVisibilityWind DirectionWind SpeedGust SpeedPrecipitationEventsConditions
1:00 AM48.2 °F44.6 °F87 %29.73 in15.0 miWest (280°)2.3 mphMostly Cloudy
2:00 AM48.2 °F46.4 °F93 %29.73 in15.0 miWest (270°)4.6 mphOvercast
3:00 AM47.0 °F46.0 °F96 %29.73 in15.0 miWSW (250°)2.3 mphRainLight Rain Showers
3:00 AM48.2 °F46.4 °F93 %29.72 in15.0 miWest (260°)3.5 mphRainLight Rain Showers
4:00 AM48.2 °F46.4 °F93 %29.72 in12.0 miWest (260°)5.8 mphRainLight Rain Showers
5:00 AM48.2 °F46.4 °F93 %29.72 in12.0 miWest (270°)4.6 mphLight Drizzle
6:00 AM48.2 °F46.4 °F93 %29.73 in12.0 miNW (310°)4.6 mphLight Drizzle
6:47 AM48.2 °F46.4 °F93 %29.73 in8.0 miNW (310°)6.9 mphRainLight Rain
7:00 AM48.2 °F46.4 °F93 %29.73 in3.0 miWNW (300°)6.9 mphRainLight Rain
7:22 AM48.2 °F48.2 °F100 %29.74 in8.0 miNW (310°)6.9 mphOvercast
8:00 AM48.2 °F48.2 °F100 %29.74 in8.0 miNW (320°)9.2 mphOvercast
8:04 AM48.2 °F48.2 °F100 %29.74 in8.0 miNNW (330°)8.1 mphRainLight Rain
9:00 AM49.0 °F48.0 °F97 %29.75 in10.0 miNW (320°)9.2 mphRainLight Rain
9:00 AM50.0 °F48.2 °F94 %29.75 in10.0 miNNW (330°)10.4 mphRainLight Rain
9:38 AM50.0 °F50.0 °F100 %29.75 in10.0 miNW (320°)9.2 mphRainLight Rain
10:00 AM51.8 °F50.0 °F94 %29.75 in10.0 miNNW (340°)10.4 mphRainLight Rain
10:21 AM51.8 °F50.0 °F94 %29.75 in2.0 miNNW (330°)11.5 mph19.6 mphRainLight Rain
10:32 AM51.8 °F50.0 °F94 %29.75 in6.0 miNNW (340°)10.4 mphRainLight Rain
11:00 AM51.8 °F50.0 °F94 %29.75 in6.0 miNorth (350°)12.7 mphRainLight Rain
12:00 PM53.6 °F50.0 °F88 %29.75 in15.0 miNorth (350°)10.4 mphRainLight Rain
12:31 PM53.6 °F51.8 °F94 %29.75 in15.0 miNNW (340°)11.5 mph19.6 mphRainLight Rain
1:00 PM53.6 °F50.0 °F88 %29.75 in15.0 miNorth (350°)11.5 mph18.4 mphRainLight Rain
1:46 PM55.4 °F51.8 °F88 %29.75 in15.0 miNorth (350°)12.7 mphMostly Cloudy
2:00 PM55.4 °F51.8 °F88 %29.75 in15.0 miNorth (360°)13.8 mph21.9 mphMostly Cloudy
2:06 PM55.4 °F51.8 °F88 %29.75 in15.0 miNorth (350°)15.0 mphRainLight Rain
3:00 PM53.0 °F51.0 °F90 %29.76 in10.0 miNorth16.1 mphRainLight Rain
3:00 PM51.8 °F50.0 °F94 %29.75 in10.0 miNorth (360°)15.0 mph23.0 mphRainLight Rain
4:00 PM53.6 °F51.8 °F94 %29.76 in6.0 miNorth (350°)16.1 mph24.2 mphRainLight Rain
5:00 PM51.8 °F50.0 °F94 %29.76 in6.0 miNNW (340°)16.1 mph26.5 mphRainLight Rain
6:00 PM51.8 °F50.0 °F94 %29.78 in6.0 miNorth (350°)16.1 mphRainLight Rain
7:00 PM51.8 °F50.0 °F94 %29.80 in6.0 miNorth (350°)12.7 mph20.7 mphRainLight Rain
8:00 PM51.8 °F50.0 °F94 %29.80 in10.0 miNNW (340°)10.4 mph21.9 mphRainLight Rain
9:00 PM51.0 °F50.0 °F94 %29.81 in7.0 miNorth (350°)16.1 mphRainLight Rain
9:00 PM51.8 °F50.0 °F94 %29.80 in8.0 miNorth (350°)16.1 mph21.9 mphRainLight Rain
10:00 PM51.8 °F50.0 °F94 %29.80 in8.0 miNorth (350°)16.1 mph23.0 mphRainLight Rain
11:00 PM51.8 °F50.0 °F94 %29.81 in4.0 miNorth (350°)12.7 mph19.6 mphRainLight Rain
Hourly data recorded from CYQM, located miles away from Moncton, New Brunswick







STORIES FROM OUR PARTNERS